Weather History for KGTB - October, 2012

Change the Weather History Date:

Monday, October 29, 2012

  Actual Average (KART) Record (KART)
Temperature  
Mean Temperature 50 °F 44 °F  
Max Temperature 56 °F 54 °F 73 °F (1955)
Min Temperature 42 °F 35 °F 16 °F (1985)
Degree Days  
Heating Degree Days 16 21  
Month to date heating degree days 481  
Since 1 July heating degree days 755  
Cooling Degree Days 0 0  
Month to date cooling degree days 0  
Year to date cooling degree days 359  
Moisture  
Dew Point 43 °F    
Average Humidity 77    
Maximum Humidity 100    
Minimum Humidity 55    
Precipitation  
Precipitation 0.06 in 0.11 in 0.43 in (1968)
Month to date precipitation 3.43  
Year to date precipitation 28.95  
Sea Level Pressure  
Sea Level Pressure 29.52 in    
Wind  
Wind Speed 19 mph (NE)    
Max Wind Speed 41 mph    
Max Gust Speed 52 mph    
Visibility 8 miles    
Events Rain    
T = Trace of Precipitation, MM = Missing Value Source: NWS Daily Summary

Daily Weather History Graph

Daily Weather History Graph

Search for Another Location

Airport or City:

Trip Planner

Search our weather history database for the weather conditions in past years. The results will help you decide how hot, cold, wet, or windy it might be!

Date:

Astronomy

Oct. 29, 2012 Rise Set
Actual Time 7:36 AM EDT 5:56 PM EDT
Civil Twilight 7:06 AM EDT 6:26 PM EDT
Nautical Twilight 6:32 AM EDT 7:00 PM EDT
Astronomical Twilight 5:58 AM EDT 7:33 PM EDT
Moon 5:45 PM EDT (10/29) 7:25 AM EDT (10/29)
Length of Visible Light 11h 20m
Length of Day
10h 20m
Full, 100% of the Moon is Illuminated
Oct 29
Full
Oct 29
Full
Nov 6
Last Quarter
Nov 13
New
Nov 20
First Quarter

Hourly Weather History & Observations

Time (EDT) Temp. Windchill Dew Point Humidity Pressure Visibility Wind Dir Wind Speed Gust Speed Precip Events Conditions
12:55 AM 42.8 °F 37.0 °F 42.8 °F 100% 29.90 in 4.0 mi NNE 10.4 mph - N/A   Overcast
12:57 AM 42.8 °F 37.0 °F 42.8 °F 100% 29.90 in 4.0 mi NE 10.4 mph - N/A   Overcast
1:10 AM 42.8 °F 36.6 °F 42.8 °F 100% 29.88 in 2.5 mi NNE 11.5 mph - N/A   Overcast
1:20 AM 42.8 °F 37.0 °F 42.8 °F 100% 29.88 in 2.5 mi NNE 10.4 mph - N/A   Overcast
1:27 AM 42.8 °F 36.6 °F 42.8 °F 100% 29.88 in 3.0 mi NE 11.5 mph - N/A   Overcast
1:55 AM 43.0 °F 37.7 °F 43.0 °F 100% 29.88 in 4.0 mi NE 9.2 mph - N/A   Overcast
2:03 AM 42.8 °F 37.0 °F 42.8 °F 100% 29.86 in 4.0 mi NNE 10.4 mph - N/A   Overcast
2:10 AM 42.8 °F 37.0 °F 42.8 °F 100% 29.86 in 2.5 mi NE 10.4 mph - N/A   Overcast
2:12 AM 42.8 °F 36.6 °F 42.8 °F 100% 29.86 in 3.0 mi NE 11.5 mph - N/A   Overcast
2:37 AM 42.8 °F 37.0 °F 42.8 °F 100% 29.85 in 3.0 mi NNE 10.4 mph - N/A   Overcast
2:45 AM 42.8 °F 36.2 °F 42.8 °F 100% 29.83 in 2.5 mi NNE 12.7 mph - N/A   Overcast
2:53 AM 42.8 °F 35.8 °F 42.8 °F 100% 29.84 in 3.0 mi NE 13.8 mph - N/A   Overcast
2:55 AM 43.2 °F 36.6 °F 43.2 °F 100% 29.84 in 3.0 mi NE 12.7 mph - N/A   Overcast
3:13 AM 42.8 °F 36.6 °F 42.8 °F 100% 29.83 in 2.5 mi NNE 11.5 mph - N/A   Overcast
3:17 AM 42.8 °F 36.6 °F 42.8 °F 100% 29.83 in 3.0 mi NNE 11.5 mph - N/A   Overcast
3:18 AM 42.8 °F 37.0 °F 42.8 °F 100% 29.83 in 3.0 mi NNE 10.4 mph - N/A   Overcast
3:55 AM 43.7 °F 39.1 °F 43.3 °F 99% 29.84 in 4.0 mi NNE 8.1 mph - N/A   Overcast
4:52 AM 44.6 °F 40.2 °F 41.0 °F 87% 29.83 in 4.0 mi NNE 8.1 mph - N/A   Overcast
4:55 AM 44.6 °F 40.2 °F 42.1 °F 91% 29.83 in 5.0 mi NNE 8.1 mph - N/A   Overcast
5:47 AM 46.4 °F 41.9 °F 42.8 °F 87% 29.82 in 8.0 mi NNE 9.2 mph - N/A   Overcast
5:55 AM 45.7 °F 41.5 °F 42.3 °F 88% 29.81 in 8.0 mi NNE 8.1 mph - N/A   Overcast
6:18 AM 46.4 °F 41.5 °F 42.8 °F 87% 29.81 in 8.0 mi North 10.4 mph - N/A   Overcast
6:42 AM 46.4 °F 41.1 °F 42.8 °F 87% 29.81 in 10.0 mi NNE 11.5 mph - N/A   Overcast
6:55 AM 46.0 °F 40.6 °F 43.2 °F 90% 29.81 in 10.0 mi NNE 11.5 mph - N/A   Overcast
7:06 AM 46.4 °F 41.5 °F 42.8 °F 87% 29.81 in 10.0 mi NNE 10.4 mph - N/A   Overcast
7:55 AM 45.9 °F 39.7 °F 43.3 °F 91% 29.80 in 10.0 mi NE 13.8 mph - N/A   Overcast
8:55 AM 46.2 °F 39.8 °F 43.5 °F 90% 29.78 in 10.0 mi NE 15.0 mph - N/A   Overcast
9:53 AM 46.4 °F 39.8 °F 42.8 °F 87% 29.78 in 10.0 mi NE 16.1 mph - N/A   Overcast
9:55 AM 46.8 °F - 41.9 °F 83% 29.77 in 10.0 mi NE 16.1 mph - N/A   Overcast
10:55 AM 47.7 °F - 40.8 °F 77% 29.74 in 10.0 mi NE 19.6 mph 25.3 mph N/A   Overcast
11:37 AM 48.2 °F - 41.0 °F 76% 29.73 in 10.0 mi NE 17.3 mph - N/A   Overcast
11:55 AM 48.7 °F - 40.8 °F 74% 29.71 in 10.0 mi NE 19.6 mph - N/A   Overcast
12:20 PM 50.0 °F - 41.0 °F 71% 29.70 in 10.0 mi NE 20.7 mph 26.5 mph N/A   Overcast
12:37 PM 50.0 °F - 39.2 °F 66% 29.69 in 10.0 mi NE 16.1 mph - N/A   Overcast
12:55 PM 50.2 °F - 39.9 °F 68% 29.68 in 10.0 mi NE 17.3 mph - N/A   Overcast
1:41 PM 50.0 °F - 41.0 °F 71% 29.64 in 10.0 mi NE 20.7 mph 26.5 mph N/A   Overcast
1:55 PM 50.9 °F - 40.1 °F 67% 29.63 in 10.0 mi NE 18.4 mph 25.3 mph N/A   Overcast
2:24 PM 51.8 °F - 41.0 °F 67% 29.60 in 10.0 mi NE 23.0 mph 31.1 mph N/A   Overcast
2:55 PM 52.7 °F - 40.8 °F 64% 29.57 in 10.0 mi NE 23.0 mph 31.1 mph N/A   Overcast
3:31 PM 53.6 °F - 41.0 °F 62% 29.55 in 10.0 mi NE 26.5 mph 35.7 mph N/A   Overcast
3:55 PM 53.6 °F - 41.7 °F 64% 29.53 in 10.0 mi NE 24.2 mph 29.9 mph N/A   Overcast
4:39 PM 53.6 °F - 42.8 °F 67% 29.49 in 10.0 mi NE 24.2 mph 34.5 mph N/A   Light Drizzle
4:52 PM 53.6 °F - 42.8 °F 67% 29.49 in 10.0 mi NE 25.3 mph 34.5 mph N/A   Overcast
4:55 PM 53.6 °F - 43.2 °F 68% 29.48 in 10.0 mi NE 21.9 mph 34.5 mph 0.01 in   Overcast
5:37 PM 55.4 °F - 41.0 °F 58% 29.42 in 10.0 mi NE 27.6 mph 39.1 mph N/A   Light Drizzle
5:48 PM 55.4 °F - 41.0 °F 58% 29.42 in 10.0 mi NE 27.6 mph 36.8 mph N/A   Overcast
5:55 PM 55.4 °F - 41.9 °F 60% 29.42 in 10.0 mi NE 25.3 mph 36.8 mph 0.00 in   Overcast
6:55 PM 55.8 °F - 42.8 °F 62% 29.34 in 10.0 mi NE 32.2 mph 41.4 mph N/A   Overcast
7:16 PM 55.4 °F - 41.0 °F 58% 29.32 in 10.0 mi NE 35.7 mph 46.0 mph N/A   Overcast
7:21 PM 57.2 °F - 41.0 °F 55% 29.32 in 10.0 mi NE 31.1 mph 47.2 mph N/A   Mostly Cloudy
7:24 PM 57.2 °F - 41.0 °F 55% 29.32 in 10.0 mi NE 36.8 mph 47.2 mph N/A   Mostly Cloudy
7:25 PM 57.2 °F - 41.0 °F 55% 29.32 in 10.0 mi NE 35.7 mph 47.2 mph N/A   Mostly Cloudy
7:26 PM 57.2 °F - 41.0 °F 55% 29.32 in 10.0 mi NE 36.8 mph 47.2 mph N/A   Mostly Cloudy
7:39 PM 57.2 °F - 41.0 °F 55% 29.31 in 10.0 mi NE 38.0 mph 46.0 mph N/A   Overcast
7:55 PM 56.5 °F - 41.7 °F 58% 29.31 in 10.0 mi NE 36.8 mph 48.3 mph 0.01 in   Overcast
8:02 PM 55.4 °F - 41.0 °F 58% 29.31 in 10.0 mi NE 35.7 mph 43.7 mph N/A   Light Drizzle
8:18 PM 55.4 °F - 42.8 °F 63% 29.29 in 10.0 mi NE 36.8 mph 50.6 mph N/A   Overcast
8:35 PM 55.4 °F - 42.8 °F 63% 29.28 in 10.0 mi NE 41.4 mph 51.8 mph N/A   Overcast
8:46 PM 55.4 °F - 42.8 °F 63% 29.28 in 10.0 mi NE 35.7 mph 49.5 mph N/A   Mostly Cloudy
8:47 PM 55.4 °F - 42.8 °F 63% 29.28 in 10.0 mi NE 33.4 mph 49.5 mph N/A   Overcast
8:49 PM 55.4 °F - 42.8 °F 63% 29.28 in 9.0 mi NE 36.8 mph 49.5 mph N/A   Light Drizzle
8:50 PM 55.4 °F - 42.8 °F 63% 29.28 in 9.0 mi NE 35.7 mph 49.5 mph N/A   Light Drizzle
8:51 PM 55.4 °F - 42.8 °F 63% 29.28 in 8.0 mi NE 40.3 mph 49.5 mph N/A   Light Drizzle
8:52 PM 55.4 °F - 42.8 °F 63% 29.27 in 8.0 mi NE 39.1 mph 49.5 mph N/A   Light Drizzle
8:55 PM 54.3 °F - 43.3 °F 66% 29.27 in 7.0 mi NE 39.1 mph 49.5 mph 0.02 in   Light Drizzle
8:56 PM 53.6 °F - 42.8 °F 67% 29.27 in 7.0 mi NE 36.8 mph 49.5 mph N/A   Light Drizzle
8:57 PM 53.6 °F - 42.8 °F 67% 29.27 in 7.0 mi NE 33.4 mph 49.5 mph N/A   Light Drizzle
8:59 PM 53.6 °F - 42.8 °F 67% 29.28 in 8.0 mi NE 35.7 mph 49.5 mph N/A   Light Drizzle
9:03 PM 53.6 °F - 42.8 °F 67% 29.27 in 9.0 mi NE 33.4 mph 49.5 mph N/A   Light Drizzle
9:04 PM 53.6 °F - 42.8 °F 67% 29.27 in 9.0 mi NE 31.1 mph 49.5 mph N/A   Light Drizzle
9:06 PM 53.6 °F - 42.8 °F 67% 29.26 in 10.0 mi NE 34.5 mph 43.7 mph N/A   Overcast
10:43 PM 55.4 °F - 42.8 °F 63% 29.21 in 10.0 mi NE 33.4 mph 47.2 mph N/A   Light Drizzle
10:52 PM 55.4 °F - 44.6 °F 67% 29.21 in 10.0 mi NE 35.7 mph 48.3 mph N/A   Overcast
10:55 PM 54.5 °F - 44.2 °F 68% 29.21 in 10.0 mi NE 34.5 mph 48.3 mph 0.01 in   Overcast
10:59 PM 55.4 °F - 44.6 °F 67% 29.21 in 10.0 mi NE 36.8 mph 47.2 mph N/A   Light Drizzle
11:15 PM 53.6 °F - 46.4 °F 77% 29.22 in 10.0 mi NE 31.1 mph 43.7 mph N/A   Light Drizzle
11:17 PM 53.6 °F - 46.4 °F 77% 29.22 in 10.0 mi NE 33.4 mph 43.7 mph N/A Rain Light Rain
11:22 PM 53.6 °F - 46.4 °F 77% 29.22 in 10.0 mi NE 35.7 mph 43.7 mph N/A Rain Light Rain
11:27 PM 53.6 °F - 46.4 °F 77% 29.23 in 9.0 mi NE 31.1 mph 43.7 mph N/A Rain Light Rain
11:35 PM 53.6 °F - 48.2 °F 82% 29.23 in 10.0 mi NE 28.8 mph 41.4 mph N/A   Light Drizzle
11:37 PM 53.6 °F - 48.2 °F 82% 29.23 in 10.0 mi NE 27.6 mph 40.3 mph N/A   Light Drizzle
11:39 PM 53.6 °F - 48.2 °F 82% 29.23 in 10.0 mi NE 28.8 mph 40.3 mph N/A   Light Drizzle
11:48 PM 53.6 °F - 48.2 °F 82% 29.23 in 10.0 mi NE 25.3 mph 33.4 mph N/A   Overcast
11:50 PM 53.6 °F - 48.2 °F 82% 29.22 in 10.0 mi NE 26.5 mph 33.4 mph N/A   Light Drizzle
11:52 PM 53.6 °F - 48.2 °F 82% 29.23 in 10.0 mi NE 31.1 mph 38.0 mph N/A   Light Drizzle
11:55 PM 53.8 °F - 48.2 °F 81% 29.22 in 10.0 mi NE 31.1 mph 39.1 mph 0.01 in   Light Drizzle